Location: Newark
(46.1453°N, 5.8006°E)
Time: 22:13:21
(UTC+00:00)

ISS - Visible Passes

Search period start: 30 September 2020 00:00
Search period end: 10 October 2020 00:00
Orbit: 419 x 421 km, 51.6° (Epoch: 01 October)

Date Brightness Start Highest point End Pass type
(mag) Time Alt. Az. Time Alt. Az. Time Alt. Az.
30 Sep -2.7 18:15:49 10° WNW 18:19:00 36° NNE 18:21:09 17° ENE visible
30 Sep -1.4 19:52:39 10° WNW 19:54:07 24° WNW 19:54:07 24° WNW visible
01 Oct -3.8 19:05:21 10° WNW 19:08:40 80° N 19:08:40 80° N visible
02 Oct -3.5 18:18:03 10° WNW 18:21:24 57° NNE 18:23:16 23° E visible
02 Oct -1.0 19:55:07 10° W 19:56:14 17° W 19:56:14 17° W visible
03 Oct -3.0 19:07:37 10° WNW 19:10:51 43° SW 19:10:53 43° SW visible
04 Oct -3.6 18:20:14 10° WNW 18:23:36 68° SSW 18:25:37 22° SE visible
05 Oct -3.8 17:32:53 10° WNW 17:36:16 81° NNE 17:39:38 10° ESE visible
05 Oct -1.5 19:10:22 10° W 19:12:44 18° SW 19:13:24 17° SSW visible
06 Oct -1.9 18:22:38 10° W 18:25:34 27° SW 18:28:20 11° SSE visible
07 Oct -2.6 17:35:05 10° WNW 17:38:19 43° SW 17:41:31 10° SE visible
08 Oct -0.7 18:26:16 10° WSW 18:27:16 11° SW 18:28:16 10° SSW visible
09 Oct -0.9 17:37:46 10° W 17:40:06 18° SW 17:42:26 10° S visible
